Shelbyville, IN

7:54 AM EST on December 15, 2019 (GMT -0500)
Shelbyville Municipal

Weather History for KGEZ - October, 2019

Change the Weather History Date:

Tuesday, October 15, 2019

  Actual Average Record
Temperature  
Mean Temperature 55 °F 54 °F  
Max Temperature 75 °F 66 °F 83 °F (2008)
Min Temperature 37 °F 43 °F 28 °F (2006)
Degree Days  
Heating Degree Days 10 11  
Month to date heating degree days 137  
Since 1 July heating degree days 222  
Cooling Degree Days 0 0  
Month to date cooling degree days 11  
Year to date cooling degree days 910  
Growing Degree Days 5 (Base 50)    
Moisture  
Dew Point 46 °F    
Average Humidity 69    
Maximum Humidity 90    
Minimum Humidity 35    
Precipitation  
Precipitation 0.01 in 0.10 in 0.42 in (2017)
Month to date precipitation 1.57  
Year to date precipitation 35.02  
Sea Level Pressure  
Sea Level Pressure 29.94 in    
Wind  
Wind Speed 7 mph (South)    
Max Wind Speed 17 mph    
Max Gust Speed 26 mph    
Visibility 10 miles    
Events Rain    
T = Trace of Precipitation, MM = Missing Value Source: NWS Daily Summary

Daily Weather History Graph

Daily Weather History Graph

Search for Another Location

Airport or City:

Astronomy

Oct. 15, 2019 Rise Set
Actual Time 7:53 AM EDT 7:04 PM EDT
Civil Twilight 7:25 AM EDT 7:31 PM EDT
Nautical Twilight 6:54 AM EDT 8:02 PM EDT
Astronomical Twilight 6:23 AM EDT 8:33 PM EDT
Moon 8:24 PM EDT 9:22 AM EDT
Length of Visible Light 12h 05m
Length of Day
11h 11m
Full, 97% of the Moon is Illuminated
Oct 15
Full
Oct 21
Last Quarter
Oct 27
New
Nov 4
First Quarter
Nov 12
Full

Hourly Weather History & Observations

Time (EDT) Temp. Windchill Dew Point Humidity Pressure Visibility Wind Dir Wind Speed Gust Speed Precip Events Conditions
12:53 AM 39.9 °F 36.7 °F 37.0 °F 89% 30.10 in 10.0 mi East 4.6 mph - N/A   Clear
1:53 AM 39.0 °F 36.8 °F 36.0 °F 89% 30.09 in 10.0 mi East 3.5 mph - N/A   Clear
2:53 AM 39.0 °F 34.8 °F 36.0 °F 89% 30.08 in 10.0 mi East 5.8 mph - N/A   Clear
3:53 AM 41.0 °F 38.0 °F 36.0 °F 82% 30.07 in 10.0 mi East 4.6 mph - N/A   Clear
4:53 AM 39.0 °F 36.8 °F 35.1 °F 86% 30.07 in 10.0 mi ESE 3.5 mph - N/A   Clear
5:53 AM 37.9 °F 34.4 °F 34.0 °F 86% 30.07 in 10.0 mi SE 4.6 mph - N/A   Clear
6:53 AM 39.0 °F 36.8 °F 35.1 °F 86% 30.07 in 10.0 mi ESE 3.5 mph - N/A   Clear
7:53 AM 37.9 °F - 34.0 °F 86% 30.06 in 10.0 mi Calm Calm - N/A   Clear
8:53 AM 45.0 °F 43.5 °F 39.9 °F 82% 30.06 in 10.0 mi East 3.5 mph - N/A   Clear
9:53 AM 54.0 °F - 39.9 °F 59% 30.04 in 10.0 mi SSE 9.2 mph - N/A   Clear
10:53 AM 62.1 °F - 39.0 °F 43% 30.01 in 10.0 mi South 12.7 mph 21.9 mph N/A   Clear
11:53 AM 68.0 °F - 42.1 °F 39% 29.98 in 10.0 mi South 15.0 mph - N/A   Clear
12:53 PM 72.0 °F - 43.0 °F 35% 29.94 in 10.0 mi South 17.3 mph 25.3 mph N/A   Partly Cloudy
1:53 PM 70.0 °F - 48.0 °F 46% 29.91 in 10.0 mi SSW 16.1 mph 26.5 mph N/A   Overcast
2:53 PM 73.0 °F - 53.1 °F 49% 29.87 in 10.0 mi South 17.3 mph 24.2 mph N/A   Mostly Cloudy
3:53 PM 73.9 °F - 53.1 °F 48% 29.84 in 10.0 mi South 15.0 mph 25.3 mph N/A   Clear
4:53 PM 73.0 °F - 53.1 °F 49% 29.83 in 10.0 mi SSW 11.5 mph - N/A   Overcast
5:53 PM 72.0 °F - 53.1 °F 51% 29.81 in 10.0 mi North - - N/A   Mostly Cloudy
6:53 PM 70.0 °F - 52.0 °F 53% 29.81 in 10.0 mi SW 5.8 mph - N/A   Overcast
7:53 PM 68.0 °F - 54.0 °F 61% 29.81 in 10.0 mi SSW 5.8 mph - 0.00 in Rain Light Rain
8:53 PM 64.0 °F - 55.9 °F 75% 29.80 in 10.0 mi WSW 6.9 mph - 0.01 in Rain Light Rain
9:53 PM 64.0 °F - 57.0 °F 78% 29.79 in 10.0 mi WSW 8.1 mph - 0.00 in   Overcast
10:20 PM 63.0 °F - 57.9 °F 84% 29.79 in 10.0 mi SW 6.9 mph - N/A   Overcast
10:53 PM 63.0 °F - 59.0 °F 87% 29.78 in 10.0 mi SW 8.1 mph - N/A   Overcast
11:53 PM 62.1 °F - 59.0 °F 90% 29.77 in 10.0 mi SW 8.1 mph - N/A   Overcast